Location: Waiwaka
(41.1333°S, 176.0167°E)
Time: 12:13:34
(UTC+00:00)

Daily predictions for brighter satellites

Satellite Brightness Start Highest point End
(mag) Time Altitude Azimuth Time Altitude Azimuth Time Altitude Azimuth
USA 59 Rocket 3.9 13:56:37 20° SE 13:56:37 20° SE 13:59:14 10° SE
USA 59 Rocket 3.0 15:43:12 36° S 15:43:12 36° S 15:49:53 10° SSE
BREEZE M DEB (TANK) 4.5 16:05:18 42° E 16:05:18 42° E 16:12:38 10° ENE
Cosmos 2322 Rocket 3.7 16:15:13 29° SE 16:15:13 29° SE 16:18:04 10° SSE
Cosmos 2333 Rocket 3.3 16:15:49 42° E 16:15:49 42° E 16:20:54 10° SE
SL-16 R/B 4.4 16:26:07 10° S 16:27:31 18° S 16:27:31 18° S
RESURS DK-1 4.4 16:44:11 25° ESE 16:44:11 25° ESE 16:46:11 10° SE
BREEZE-M DEB (TANK) 4.5 16:49:17 21° ENE 16:49:17 21° ENE 16:52:17 10° ESE
Lacrosse 5 4.1 16:51:26 15° S 16:51:33 15° SSE 16:54:29 10° SE
SL-16 R/B 3.8 17:02:01 21° S 17:02:01 21° S 17:04:04 10° S
Lacrosse 5 rocket 4.1 17:02:18 10° NNE 17:03:52 12° ENE 17:05:27 10° E
Cosmos 2219 Rocket 2.6 17:00:46 10° N 17:06:23 64° ENE 17:12:03 10° SSE
USA 238 DEB 4.5 17:09:17 29° NNW 17:09:17 29° NNW 17:12:48 10° N
USA 238 4.4 17:09:18 30° NNW 17:09:18 30° NNW 17:12:54 10° N
Cosmos 2333 4.1 17:05:55 34° NNW 17:08:36 90° S 17:14:25 10° SSE
Cosmos 1844 Rocket 2.7 17:10:14 60° NW 17:10:14 60° NW 17:15:28 10° N
Cosmos 1844 3.6 17:15:30 61° W 17:15:47 62° WNW 17:21:18 10° N
Cosmos 2360 Rocket 2.3 17:17:18 54° SW 17:17:18 54° SW 17:22:33 10° SSE
Meteor 2-1 Rocket 4.4 17:13:21 10° N 17:19:11 76° E 17:24:58 10° SSE
Cosmos 1570 Rocket 3.9 17:18:19 53° NW 17:19:26 67° WSW 17:24:49 10° SSE
Cosmos 158 Rocket 3.9 17:15:00 10° NNW 17:20:06 81° ENE 17:25:09 10° SSE
DMSP B5D2-2 3.9 17:14:55 10° S 17:20:11 74° WSW 17:25:24 10° NNW
Cosmos 1626 Rocket 4.4 17:17:12 11° S 17:21:21 50° E 17:25:38 10° NNE
OAO 2 Rocket 4.1 17:21:37 35° NNW 17:22:42 40° N 17:27:18 10° ENE
Cosmos 1869 3.5 17:19:11 10° N 17:22:53 65° E 17:26:40 10° SSE
COSMOS 2428 4.0 17:20:18 10° N 17:25:39 42° ENE 17:31:05 10° SE
Cosmos 2208 Rocket 3.8 17:20:36 10° NNW 17:25:47 79° WSW 17:31:05 10° SSE
Centaur D-1A AC-31 3.6 17:24:13 10° N 17:25:49 12° NNE 17:27:45 10° NE
Gbstr 26 Del rocket 4.2 17:28:05 31° SSW 17:29:38 41° SSE 17:34:53 10° E
USA 59 Rocket 3.3 17:29:46 19° SW 17:33:18 23° SSW 17:40:55 10° SSE
PSLV R/B 3.4 17:32:57 10° N 17:37:12 66° WNW 17:38:47 37° SSW
Cosmos 773 Rocket 4.3 17:34:46 10° N 17:39:56 67° ENE 17:45:12 10° SSE
Cosmos 1934 Rocket 4.5 17:40:57 33° W 17:40:57 33° W 17:46:08 10° NNW
Cosmos 1544 Rocket 3.4 17:39:17 10° NNW 17:43:43 71° W 17:48:12 10° S
ATLAS 5 CENTAUR R/B 2.6 17:40:05 17° SSW 17:44:21 51° SE 17:48:52 10° NE
Okean 1-7 Rocket 4.3 17:40:12 10° S 17:44:40 55° E 17:49:07 10° NNE
Cosmos 2058 3.2 17:45:22 42° WNW 17:45:22 42° WNW 17:48:55 10° NNW
Cosmos 1727 Rocket 4.0 17:43:03 10° N 17:49:26 86° W 17:55:54 10° S
Spot 4 Rocket 4.3 17:47:41 10° N 17:52:35 45° W 17:56:20 17° SSW
Cosmos 2298 Rocket 4.0 17:49:22 11° SSW 17:54:29 86° WNW 17:59:48 10° NNE
Meteor 2-13 Rocket 4.4 17:48:23 10° N 17:54:32 88° W 18:00:48 10° S
Cosmos 1271 Rocket 4.0 17:52:40 10° S 17:56:22 41° ESE 18:00:00 10° NNE
Cosmos 2322 Rocket 3.4 17:57:05 22° SW 17:57:05 22° SW 18:01:19 10° S
ADEOS Rocket 4.4 17:52:20 10° NE 17:58:34 40° ESE 18:04:17 10° S
Cosmos 2333 Rocket 3.0 17:57:55 25° W 17:59:51 30° SW 18:04:57 10° S
ATLAS 3B R/B 4.5 17:58:28 10° SSW 18:02:50 19° SSE 18:07:09 10° ESE
Cosmos 839 Rocket 4.5 17:56:52 10° NW 18:03:51 80° WSW 18:12:50 10° SSE
ISS -1.6 18:03:50 14° SSW 18:04:17 14° S 18:06:15 10° SSE
USA 276 4.1 18:05:09 15° SSW 18:05:48 16° S 18:07:51 10° SE
Cosmos 1862 3.6 18:05:45 10° S 18:09:43 68° E 18:13:38 10° NNE
Cosmos 1606 3.5 18:11:45 10° NW 18:14:52 26° WSW 18:18:01 10° SSW
Cosmos 1125 Rocket 4.3 18:14:29 17° SW 18:17:26 29° W 18:21:52 10° NNW
Cosmos 1602 Rocket 3.5 18:13:18 10° SSW 18:17:40 67° W 18:21:59 10° N
Cosmos 2278 Rocket 3.2 18:14:41 10° SSW 18:20:11 45° ESE 18:25:38 10° NE
RESURS DK-1 3.7 18:19:53 18° WSW 18:20:12 19° SW 18:23:10 10° S
Cosmos 1606 Rocket 3.8 18:16:26 10° N 18:20:53 74° E 18:25:20 10° SSE
Cosmos 1802 Rocket 4.2 18:17:04 10° S 18:23:19 79° E 18:29:32 10° N
Cosmos 1825 Rocket 4.0 18:20:43 10° S 18:25:06 65° E 18:29:27 10° NNE
Cosmos 1459 Rocket 3.9 18:19:22 10° S 18:25:34 78° W 18:31:37 10° N
Cosmos 1758 Rocket 3.8 18:21:22 10° SSW 18:25:38 46° W 18:29:54 10° NNW
NOSS 0 Rocket 4.1 18:23:41 10° NNW 18:29:56 82° ENE 18:36:14 10° SSE
Helios 1B rocket 2.3 18:26:38 10° N 18:30:30 60° W 18:34:27 10° SSW
Meteor 2-15 4.5 18:26:20 10° SSW 18:32:32 70° W 18:38:39 10° N
CZ-2C R/B 3.1 18:30:26 10° N 18:33:52 40° W 18:37:25 10° SSW
Lacrosse 5 3.1 18:31:10 10° SSW 18:35:54 36° SE 18:40:35 10° E
Cosmos 2016 Rocket 4.1 18:30:01 10° S 18:36:16 83° E 18:42:24 10° N
ATLAS 2AS CENTAUR R/B 2.8 18:31:41 10° NNW 18:38:22 87° NE 18:45:25 10° SE
Cosmos 2228 4.1 18:35:57 10° NW 18:39:30 24° WSW 18:43:04 10° SSW
USA 234 3.3 18:33:17 10° SE 18:39:53 75° SW 18:46:28 10° WNW
Lacrosse 5 rocket 0.9 18:38:11 10° NW 18:41:42 60° SW 18:45:15 10° SE
SMAP 4.2 18:37:58 10° NNW 18:41:47 24° W 18:45:38 10° SW
Cosmos 1726 Rocket 3.6 18:40:51 10° N 18:45:19 81° W 18:49:48 10° S
COSMO-SKYMED 1 2.6 18:41:44 10° S 18:46:05 59° WSW 18:50:22 10° NNW
Meteor 1-31 Rocket 3.4 18:43:22 10° NNW 18:46:46 33° W 18:50:15 10° SSW
Cosmos 2322 4.3 18:42:09 10° WNW 18:47:18 35° WSW 18:52:31 10° S
Meteor 2-3 Rocket 4.5 18:43:14 10° SSW 18:48:09 31° W 18:53:03 10° NNW
Cosmos 2061 Rocket 4.3 18:43:06 10° S 18:49:35 78° E 18:56:02 10° N
CZ-4B R/B 4.0 18:45:01 10° NNE 18:50:12 67° ESE 18:55:20 10° S
Cosmos 2219 Rocket 3.4 18:46:33 10° W 18:50:48 21° SW 18:55:04 10° S
NOSS 3-1 (C) 3.5 18:49:58 10° SSW 18:56:21 70° SE 19:01:29 10° NE
ATLAS 5 CENTAUR R/B 4.5 18:51:43 10° WSW 18:57:03 44° NW 19:16:07 10° NNE
DNEPR-1 R/B 3.8 18:54:53 10° NNW 18:58:57 71° ENE 19:03:16 10° SE
NOSS 3-1 (A) 4.4 18:53:38 10° SSW 18:59:44 39° SE 19:04:43 10° ENE
